Time,TemperatureF,DewpointF,PressureIn,WindDirection,WindDirectionDegrees,WindSpeedMPH,WindSpeedGustMPH,Humidity,HourlyPrecipIn,Conditions,Clouds,dailyrainin,SoftwareType,DateUTC
2015-03-29 00:00:00,33.0,15.9,30.30,WNW,298,0.0,6.0,49,0.00,,,0.00,Wunderground v.1.13,2015-03-29 04:00:00,
2015-03-29 00:10:00,32.4,15.3,30.31,WNW,298,0.0,6.0,49,0.00,,,0.00,Wunderground v.1.13,2015-03-29 04:10:00,
2015-03-29 00:20:00,32.1,14.1,30.31,WNW,298,0.0,6.0,47,0.00,,,0.00,Wunderground v.1.13,2015-03-29 04:20:00,
2015-03-29 00:30:00,32.1,13.6,30.31,WNW,298,0.0,6.0,46,0.00,,,0.00,Wunderground v.1.13,2015-03-29 04:30:00,
2015-03-29 00:40:00,32.1,15.1,30.31,WNW,298,0.0,6.0,49,0.00,,,0.00,Wunderground v.1.13,2015-03-29 04:40:00,
2015-03-29 00:50:00,31.7,15.2,30.31,WNW,298,0.0,6.0,50,0.00,,,0.00,Wunderground v.1.13,2015-03-29 04:50:00,
2015-03-29 01:00:00,31.1,15.5,30.31,WNW,298,0.0,6.0,52,0.00,,,0.00,Wunderground v.1.13,2015-03-29 05:00:00,
2015-03-29 01:10:00,30.6,15.0,30.31,WNW,298,0.0,6.0,52,0.00,,,0.00,Wunderground v.1.13,2015-03-29 05:10:00,
2015-03-29 01:20:00,30.2,16.4,30.32,WNW,298,0.0,6.0,56,0.00,,,0.00,Wunderground v.1.13,2015-03-29 05:20:00,
2015-03-29 01:30:00,29.7,16.7,30.32,WNW,298,0.0,6.0,58,0.00,,,0.00,Wunderground v.1.13,2015-03-29 05:30:00,
2015-03-29 01:40:00,29.4,16.8,30.32,WNW,298,0.0,6.0,59,0.00,,,0.00,Wunderground v.1.13,2015-03-29 05:40:00,
2015-03-29 01:50:00,29.0,17.2,30.32,WNW,298,0.0,6.0,61,0.00,,,0.00,Wunderground v.1.13,2015-03-29 05:50:00,
2015-03-29 02:00:00,29.0,18.7,30.32,WNW,298,0.0,6.0,65,0.00,,,0.00,Wunderground v.1.13,2015-03-29 06:00:00,
2015-03-29 02:10:00,28.9,17.9,30.32,WNW,298,0.0,6.0,63,0.00,,,0.00,Wunderground v.1.13,2015-03-29 06:10:00,
2015-03-29 02:20:00,28.6,18.3,30.32,WNW,298,0.0,6.0,65,0.00,,,0.00,Wunderground v.1.13,2015-03-29 06:20:00,
2015-03-29 02:30:00,28.3,19.1,30.32,WNW,298,0.0,6.0,68,0.00,,,0.00,Wunderground v.1.13,2015-03-29 06:30:00,
2015-03-29 02:40:00,28.0,19.5,30.33,WNW,298,0.0,6.0,70,0.00,,,0.00,Wunderground v.1.13,2015-03-29 06:40:00,
2015-03-29 02:50:00,27.5,19.3,30.33,WNW,298,0.0,6.0,71,0.00,,,0.00,Wunderground v.1.13,2015-03-29 06:50:00,
2015-03-29 03:00:00,27.2,19.4,30.33,WNW,298,0.0,6.0,72,0.00,,,0.00,Wunderground v.1.13,2015-03-29 07:00:00,
2015-03-29 03:10:00,27.1,18.9,30.33,WNW,298,0.0,6.0,71,0.00,,,0.00,Wunderground v.1.13,2015-03-29 07:10:00,
2015-03-29 03:20:00,26.8,18.3,30.33,WNW,298,0.0,6.0,70,0.00,,,0.00,Wunderground v.1.13,2015-03-29 07:20:00,
2015-03-29 03:30:00,26.6,18.8,30.33,WNW,298,0.0,6.0,72,0.00,,,0.00,Wunderground v.1.13,2015-03-29 07:30:00,
2015-03-29 03:40:00,26.3,17.8,30.33,WNW,298,0.0,6.0,70,0.00,,,0.00,Wunderground v.1.13,2015-03-29 07:40:00,
2015-03-29 03:50:00,26.2,17.7,30.32,WNW,298,0.0,6.0,70,0.00,,,0.00,Wunderground v.1.13,2015-03-29 07:50:00,
2015-03-29 04:00:00,26.0,17.9,30.32,WNW,298,0.0,6.0,71,0.00,,,0.00,Wunderground v.1.13,2015-03-29 08:00:00,
2015-03-29 04:10:00,25.9,17.1,30.33,WNW,298,0.0,6.0,69,0.00,,,0.00,Wunderground v.1.13,2015-03-29 08:10:00,
2015-03-29 04:20:00,25.6,17.5,30.33,WNW,298,0.0,6.0,71,0.00,,,0.00,Wunderground v.1.13,2015-03-29 08:20:00,
2015-03-29 04:40:00,25.3,17.9,30.34,WNW,298,0.0,6.0,73,0.00,,,0.00,Wunderground v.1.13,2015-03-29 08:40:00,
2015-03-29 04:50:00,25.5,18.4,30.33,WNW,298,0.0,6.0,74,0.00,,,0.00,Wunderground v.1.13,2015-03-29 08:50:00,
2015-03-29 05:00:00,25.3,17.9,30.33,WNW,298,0.0,6.0,73,0.00,,,0.00,Wunderground v.1.13,2015-03-29 09:00:00,
2015-03-29 05:10:00,25.2,17.8,30.33,WNW,298,0.0,6.0,73,0.00,,,0.00,Wunderground v.1.13,2015-03-29 09:10:00,
2015-03-29 05:20:00,24.9,17.8,30.34,WNW,298,0.0,6.0,74,0.00,,,0.00,Wunderground v.1.13,2015-03-29 09:20:00,
2015-03-29 05:30:00,24.6,17.5,30.34,WNW,298,0.0,6.0,74,0.00,,,0.00,Wunderground v.1.13,2015-03-29 09:30:00,
2015-03-29 05:40:00,24.4,17.3,30.34,WNW,298,0.0,6.0,74,0.00,,,0.00,Wunderground v.1.13,2015-03-29 09:40:00,
2015-03-29 05:50:00,24.3,17.5,30.35,WNW,298,0.0,6.0,75,0.00,,,0.00,Wunderground v.1.13,2015-03-29 09:50:00,
2015-03-29 06:00:00,24.0,17.2,30.35,WNW,298,0.0,6.0,75,0.00,,,0.00,Wunderground v.1.13,2015-03-29 10:00:00,
2015-03-29 06:10:00,23.8,17.0,30.34,WNW,298,0.0,6.0,75,0.00,,,0.00,Wunderground v.1.13,2015-03-29 10:10:00,
2015-03-29 06:20:00,23.8,17.0,30.35,WNW,298,0.0,6.0,75,0.00,,,0.00,Wunderground v.1.13,2015-03-29 10:20:00,
2015-03-29 06:30:00,23.7,17.2,30.35,WNW,298,0.0,6.0,76,0.00,,,0.00,Wunderground v.1.13,2015-03-29 10:30:00,
2015-03-29 06:40:00,23.7,17.2,30.35,WNW,298,0.0,6.0,76,0.00,,,0.00,Wunderground v.1.13,2015-03-29 10:40:00,
2015-03-29 06:50:00,23.5,17.3,30.36,WNW,298,0.0,6.0,77,0.00,,,0.00,Wunderground v.1.13,2015-03-29 10:50:00,
2015-03-29 07:00:00,23.4,16.9,30.36,WNW,298,0.0,6.0,76,0.00,,,0.00,Wunderground v.1.13,2015-03-29 11:00:00,
2015-03-29 07:10:00,23.4,17.3,30.36,WNW,298,0.0,6.0,77,0.00,,,0.00,Wunderground v.1.13,2015-03-29 11:10:00,
2015-03-29 07:20:00,23.5,17.0,30.37,WNW,298,0.0,6.0,76,0.00,,,0.00,Wunderground v.1.13,2015-03-29 11:20:00,